Location: Newark
(7.0858°N, 171.3717°E)
Time: 17:09:49
(UTC+00:00)

Transit 2A - Pass Details

Date: 28 November 2020
Orbit: 598 x 960 km, 66.7° (Epoch: 20 January)

Event Time Altitude Azimuth Distance (km) Brightness Sun altitude
Rises 04:01:50 0° 180° (S) 3,535 9.8 29.2°
Reaches altitude 10° 04:04:34 10° 170° (S) 2,629 9.1 28.6°
Maximum altitude 04:10:03 33° 108° (ESE) 1,537 7.5 27.4°
Drops below altitude 10° 04:15:38 10° 46° (NE) 2,683 8.4 26.2°
Sets 04:18:25 0° 37° (NE) 3,617 9.0 25.6°
